Mullan Pass, ID

12:47 AM PDT on August 24, 2017 (GMT -0700)
Mullan Pass

Weather History for KMLP - December, 2012

Change the Weather History Date:

Thursday, December 6, 2012

  Actual Average (K3TH) Record (K3TH)
Temperature  
Mean Temperature 22 °F -  
Max Temperature 24 °F 33 °F 39 °F (1999)
Min Temperature 19 °F 27 °F 24 °F (1997)
Degree Days  
Heating Degree Days 44    
Moisture  
Dew Point 19 °F    
Average Humidity 96    
Maximum Humidity 100    
Minimum Humidity 86    
Precipitation  
Precipitation 0.45 in - - ()
Sea Level Pressure  
Sea Level Pressure 29.95 in    
Wind  
Wind Speed 5 mph (WSW)    
Max Wind Speed 8 mph    
Max Gust Speed 16 mph    
Visibility 2 miles    
Events Fog , Snow    
Averages and records for this station are not official NWS values.
T = Trace of Precipitation, MM = Missing Value Source: NWS Daily Summary

Daily Weather History Graph

Daily Weather History Graph

Search for Another Location

Airport or City:

Trip Planner

Search our weather history database for the weather conditions in past years. The results will help you decide how hot, cold, wet, or windy it might be!

Date:

Astronomy

Dec. 06, 2012 Rise Set
Actual Time 7:15 AM PST 3:52 PM PST
Civil Twilight 6:40 AM PST 4:27 PM PST
Nautical Twilight 6:01 AM PST 5:06 PM PST
Astronomical Twilight 5:24 AM PST 5:43 PM PST
Moon No Moon Rise 11:46 AM PST (12/6)
Length of Visible Light 9h 47m
Length of Day
8h 36m
Waning Gibbous, 48% of the Moon is Illuminated
Dec 6
Waning Gibbous
Dec 13
New
Dec 19
First Quarter
Dec 28
Full
Jan 4
Last Quarter

Hourly Weather History & Observations

Time (PST) Temp. Windchill Dew Point Humidity Pressure Visibility Wind Dir Wind Speed Gust Speed Precip Events Conditions
12:53 AM 19.0 °F 11.1 °F 17.1 °F 92% 30.14 in 10.0 mi Variable 5.8 mph - N/A   Overcast
1:34 AM 19.4 °F 11.5 °F 17.6 °F 93% 29.98 in 10.0 mi Variable 5.8 mph - N/A   Overcast
1:53 AM 19.9 °F 11.1 °F 18.0 °F 92% 30.15 in 10.0 mi Variable 6.9 mph - N/A   Overcast
2:11 AM 19.4 °F 12.8 °F 17.6 °F 93% 29.99 in 9.0 mi WSW 4.6 mph - N/A   Overcast
2:29 AM 19.4 °F 12.8 °F 17.6 °F 93% 29.98 in 2.0 mi SW 4.6 mph - 0.00 in Snow Light Snow
2:48 AM 19.4 °F 14.3 °F 19.4 °F 100% 29.98 in 3.0 mi Variable 3.5 mph - 0.00 in Snow Light Snow
2:53 AM 19.9 °F 13.4 °F 18.0 °F 92% 30.14 in 4.0 mi Variable 4.6 mph - 0.00 in Snow Light Snow
3:06 AM 19.4 °F 14.3 °F 17.6 °F 93% 29.98 in 4.0 mi Variable 3.5 mph - 0.00 in Snow Light Snow
3:12 AM 19.4 °F 12.8 °F 17.6 °F 93% 29.97 in 1.8 mi Variable 4.6 mph - 0.00 in Snow Light Snow
3:18 AM 19.4 °F 14.3 °F 19.4 °F 100% 29.97 in 1.2 mi Variable 3.5 mph - 0.00 in Snow Light Snow
3:31 AM 19.4 °F 14.3 °F 19.4 °F 100% 29.96 in 1.5 mi Variable 3.5 mph - 0.00 in Snow Light Snow
3:38 AM 19.4 °F 14.3 °F 19.4 °F 100% 29.97 in 2.0 mi Variable 3.5 mph - 0.00 in Snow Light Snow
3:49 AM 19.4 °F 14.3 °F 19.4 °F 100% 29.97 in 4.0 mi Variable 3.5 mph - 0.00 in Snow Light Snow
3:53 AM 19.9 °F 13.4 °F 19.0 °F 96% 30.13 in 6.0 mi Variable 4.6 mph - 0.00 in Snow Light Snow
4:53 AM 19.9 °F 12.1 °F 19.0 °F 96% 30.12 in 10.0 mi Variable 5.8 mph - 0.00 in   Overcast
5:06 AM 19.4 °F 10.4 °F 17.6 °F 93% 29.95 in 9.0 mi Variable 6.9 mph - N/A   Overcast
5:53 AM 19.9 °F 13.4 °F 18.0 °F 92% 30.11 in 10.0 mi SW 4.6 mph - N/A   Overcast
6:14 AM 19.4 °F 10.4 °F 19.4 °F 100% 29.95 in 7.0 mi Variable 6.9 mph - 0.00 in Snow Light Snow
6:24 AM 19.4 °F 10.4 °F 19.4 °F 100% 29.95 in 5.0 mi Variable 6.9 mph - 0.00 in Snow Light Snow
6:53 AM 19.9 °F 11.1 °F 19.0 °F 96% 30.11 in 5.0 mi SW 6.9 mph - 0.01 in Snow Light Snow
7:08 AM 19.4 °F 10.4 °F 19.4 °F 100% 29.95 in 2.0 mi Variable 6.9 mph - 0.00 in Snow Light Snow
7:15 AM 19.4 °F 10.4 °F 17.6 °F 93% 29.95 in 1.5 mi WSW 6.9 mph - 0.00 in Snow Light Snow
7:27 AM 19.4 °F 11.5 °F 19.4 °F 100% 29.94 in 1.2 mi Variable 5.8 mph - 0.00 in Snow Light Snow
7:39 AM 19.4 °F 14.3 °F 19.4 °F 100% 29.94 in 1.0 mi WSW 3.5 mph - 0.01 in Snow Light Snow
7:45 AM 19.4 °F 12.8 °F 19.4 °F 100% 29.94 in 0.8 mi Variable 4.6 mph - 0.01 in Snow Light Snow
7:53 AM 19.9 °F 14.9 °F 19.0 °F 96% 30.09 in 0.8 mi Variable 3.5 mph - 0.01 in Snow Light Snow
7:58 AM 19.4 °F 10.4 °F 19.4 °F 100% 29.93 in 1.0 mi Variable 6.9 mph - 0.00 in Snow Light Snow
8:10 AM 19.4 °F 14.3 °F 19.4 °F 100% 29.93 in 1.5 mi WSW 3.5 mph - 0.00 in Snow Light Snow
8:20 AM 19.4 °F 11.5 °F 19.4 °F 100% 29.93 in 1.2 mi Variable 5.8 mph - 0.00 in Snow Light Snow
8:53 AM 19.9 °F 12.1 °F 19.0 °F 96% 30.10 in 1.0 mi Variable 5.8 mph - 0.00 in Snow Light Snow
9:53 AM 19.9 °F 12.1 °F 19.0 °F 96% 30.11 in 1.2 mi Variable 5.8 mph - 0.01 in Snow Light Snow
10:15 AM 19.4 °F 10.4 °F 19.4 °F 100% 29.93 in 1.5 mi SW 6.9 mph - 0.00 in Snow Light Snow
10:25 AM 19.4 °F 11.5 °F 19.4 °F 100% 29.93 in 2.0 mi Variable 5.8 mph - 0.00 in Snow Light Snow
10:41 AM 19.4 °F 10.4 °F 19.4 °F 100% 29.92 in 1.2 mi Variable 6.9 mph - 0.00 in Snow Light Snow
10:53 AM 19.9 °F 13.4 °F 19.0 °F 96% 30.09 in 0.8 mi Variable 4.6 mph - 0.00 in Snow Light Snow
11:18 AM 19.4 °F 9.5 °F 19.4 °F 100% 29.91 in 0.5 mi SW 8.1 mph - 0.01 in Fog , Snow Light Snow
11:27 AM 19.4 °F 10.4 °F 19.4 °F 100% 29.90 in 0.8 mi Variable 6.9 mph - 0.01 in Snow Light Snow
11:53 AM 19.9 °F 12.1 °F 19.0 °F 96% 30.06 in 1.0 mi Variable 5.8 mph - 0.02 in Snow Light Snow
12:23 PM 21.2 °F 13.6 °F 19.4 °F 93% 29.88 in 0.8 mi Variable 5.8 mph - 0.00 in Snow Light Snow
12:35 PM 21.2 °F 13.6 °F 19.4 °F 93% 29.89 in 1.5 mi Variable 5.8 mph - 0.01 in Snow Light Snow
12:41 PM 21.2 °F 16.4 °F 19.4 °F 93% 29.88 in 1.2 mi Variable 3.5 mph - 0.01 in Snow Light Snow
12:53 PM 21.0 °F 14.6 °F 19.9 °F 96% 30.05 in 1.0 mi Variable 4.6 mph - 0.01 in Snow Light Snow
1:07 PM 21.2 °F 12.6 °F 19.4 °F 93% 29.87 in 0.8 mi Variable 6.9 mph - 0.00 in Snow Light Snow
1:09 PM 21.2 °F 14.9 °F 19.4 °F 93% 29.87 in 1.0 mi Variable 4.6 mph - 0.00 in Snow Light Snow
1:53 PM 19.9 °F 12.1 °F 19.0 °F 96% 30.03 in 1.0 mi Variable 5.8 mph - 0.00 in Snow Light Snow
1:59 PM 19.4 °F 11.5 °F 19.4 °F 100% 29.86 in 0.8 mi Variable 5.8 mph - 0.01 in Snow Light Snow
2:53 PM 19.9 °F 11.1 °F 19.0 °F 96% 30.02 in 0.8 mi Variable 6.9 mph - 0.02 in Snow Light Snow
3:07 PM 19.4 °F 14.3 °F 19.4 °F 100% 29.85 in 1.5 mi Variable 3.5 mph - 0.00 in Snow Light Snow
3:19 PM 19.4 °F - 19.4 °F 100% 29.85 in 1.0 mi Calm Calm - 0.00 in Snow Light Snow
3:53 PM 19.9 °F - 19.9 °F 100% 30.01 in 1.5 mi Calm Calm - 0.00 in Snow Light Snow
4:34 PM 19.4 °F 12.8 °F 19.4 °F 100% 29.84 in 1.2 mi WSW 4.6 mph - 0.01 in Snow Light Snow
4:53 PM 21.0 °F 14.6 °F 19.9 °F 96% 29.99 in 1.2 mi Variable 4.6 mph - 0.01 in Snow Light Snow
5:24 PM 21.2 °F 14.9 °F 19.4 °F 93% 29.83 in 0.8 mi Variable 4.6 mph - 0.02 in Snow Light Snow
5:40 PM 21.2 °F 14.9 °F 19.4 °F 93% 29.82 in 1.0 mi Variable 4.6 mph - 0.02 in Snow Light Snow
5:48 PM 21.2 °F 13.6 °F 19.4 °F 93% 29.82 in 0.8 mi SSW 5.8 mph - 0.03 in Snow Light Snow
5:53 PM 21.0 °F 13.4 °F 19.9 °F 96% 29.98 in 0.8 mi Variable 5.8 mph - 0.03 in Snow Light Snow
6:18 PM 21.2 °F 14.9 °F 19.4 °F 93% 29.81 in 0.5 mi Variable 4.6 mph - 0.04 in Fog , Snow Snow
6:39 PM 21.2 °F 11.7 °F 19.4 °F 93% 29.81 in 1.0 mi SSW 8.1 mph - 0.05 in Snow Light Snow
6:53 PM 21.0 °F 14.6 °F 19.9 °F 96% 29.96 in 0.8 mi Variable 4.6 mph 16.1 mph 0.06 in Snow Light Snow
7:16 PM 21.2 °F 11.7 °F 19.4 °F 93% 29.81 in 0.5 mi WSW 8.1 mph - 0.02 in Fog , Snow Snow
7:53 PM 21.0 °F 14.6 °F 19.9 °F 96% 29.96 in 0.8 mi Variable 4.6 mph - 0.04 in Snow Light Snow
8:53 PM 21.9 °F 13.4 °F 21.0 °F 96% 29.96 in 0.5 mi SW 6.9 mph - 0.05 in Fog , Snow Snow
9:43 PM 21.2 °F 11.7 °F 21.2 °F 100% 29.79 in 1.2 mi WSW 8.1 mph - 0.04 in Snow Light Snow
9:50 PM 21.2 °F 13.6 °F 21.2 °F 100% 29.79 in 0.8 mi Variable 5.8 mph - 0.04 in Snow Light Snow
9:53 PM 21.9 °F 12.5 °F 21.0 °F 96% 29.94 in 0.8 mi WSW 8.1 mph - 0.04 in Snow Light Snow
10:31 PM 23.0 °F 17.0 °F 21.2 °F 93% 29.80 in 0.2 mi NW 4.6 mph - 0.05 in Fog , Snow Snow
10:43 PM 23.0 °F 14.7 °F 21.2 °F 93% 29.80 in 0.5 mi NW 6.9 mph - 0.05 in Fog , Snow Light Snow
10:53 PM 23.0 °F 14.7 °F 21.0 °F 92% 29.94 in 0.5 mi Variable 6.9 mph - 0.05 in Fog , Snow Light Snow
11:26 PM 24.8 °F 16.9 °F 21.2 °F 86% 29.80 in 0.2 mi Variable 6.9 mph - 0.02 in Fog , Snow Snow
11:53 PM 24.1 °F 15.2 °F 21.0 °F 88% 29.95 in 0.2 mi NW 8.1 mph - 0.09 in Fog , Snow Snow